BEIDOU-3 M27 (C49)

Last updated on Sat Aug 15 2026 00:03:26 GMT+0000 (Coordinated Universal Time)

1 61187U 24168C 26226.24341646 -.00000065 00000+0 00000+0 0 9992 2 61187 54.4138 300.2041 0000549 2.2518 354.4431 1.86230097 10333
UTC large
Height (km)
Speed (km/s)
/
Latitude / Longitude
Inclination (degrees)
Orbital Period (minutes)
Azimuth
Elevation
Range (km)
Doppler Factor

Next 0 passes for location: London (51.5072 / 0.1276)

No passes found over London.
BEIDOU-3 M27 (C49)